Location: Fours
(44.3167°N, 6.7000°E)
Time: 20:02:48
(UTC+00:00)

N. Korean satellite - Pass Details

Date: 06 October 2021
Orbit: 450 x 494 km, 97.3° (Epoch: 28 October)

Event Time Altitude Azimuth Distance (km) Brightness Sun altitude
Rises 04:36:53 0° 16° (NNE) 2,568 10.5 -11.6°
Reaches altitude 10° 04:38:59 10° 21° (NNE) 1,688 9.6 -11.2°
Maximum altitude 04:42:34 54° 100° (E) 604 7.4 -10.6°
Drops below altitude 10° 04:46:08 10° 179° (S) 1,688 9.3 -9.9°
Sets 04:48:14 0° 183° (S) 2,567 10.2 -9.5°
